Regional Weather Roundup
Issued by NWS Charleston, WV

Home | Current Version | Previous Version | Text Only | Print | Product List | Glossary On
Versions: 1 2 3 4 5 6 7 8 9 10 11 12 13 14 15 16 17 18 19 20 21 22 23 24 25 26 27
000
ASUS41 KRLX 210910
RWRRLX
West Virginia Regional Weather Roundup
National Weather Service Charleston WV
500 AM EDT MON APR 21 2014

Note: "fair" indicates few or no clouds below 12,000 feet with no
significant weather and/or obstructions to visibility.

WVZ003-211000-
Northern Panhandle of West Virginia

CITY           SKY/WX    TMP DP  RH WIND       PRES   REMARKS
WHEELING       CLEAR     51  27  39 SE5       30.09F
$$

WVZ009-211000-
Northwest West Virginia

CITY           SKY/WX    TMP DP  RH WIND       PRES   REMARKS
PARKERSBURG    CLEAR     43  33  68 CALM      30.13R
$$

WVZ006-211000-
Western West Virginia

CITY           SKY/WX    TMP DP  RH WIND       PRES   REMARKS
HUNTINGTON     CLEAR     47  37  68 SE3       30.08S
$$

WVZ015-211000-
West Central West Virginia

CITY           SKY/WX    TMP DP  RH WIND       PRES   REMARKS
CHARLESTON     CLEAR     48  35  60 SE3       30.10S
$$

WVZ031-211000-
North Central West Virginia

CITY           SKY/WX    TMP DP  RH WIND       PRES   REMARKS
CLARKSBURG     CLEAR     46  29  51 CALM      30.12S
MORGANTOWN     CLEAR     49  30  48 SE5       30.13S
$$

WVZ035-042-045-211000-
South Central West Virginia

CITY           SKY/WX    TMP DP  RH WIND       PRES   REMARKS
BECKLEY        CLEAR     49  29  46 SE8       30.16S
BLUEFIELD      CLEAR     50  28  42 SE7       30.17S
LEWISBURG      CLEAR     34  28  80 CALM      30.18S
$$

WVZ047-211000-
Northern Mountains of West Virginia

CITY           SKY/WX    TMP DP  RH WIND       PRES   REMARKS
ELKINS         CLEAR     34  29  82 CALM      30.16F
$$

WVZ052-211000-
Eastern Panhandle of West Virginia

CITY           SKY/WX    TMP DP  RH WIND       PRES   REMARKS
MARTINSBURG    CLEAR     38  32  79 CALM      30.21F
PETERSBURG     CLEAR     40  37  91 CALM      30.21S
$$



USA.gov is the U.S. government's official web portal to all federal, state and local government web resources and services.